Buffalo, NY

4:26 AM EST on November 13, 2019 (GMT -0500)
Buffalo Niagara International

Weather History for KBUF - September, 2019

Change the Weather History Date:

Monday, September 23, 2019

  Actual Average Record
Temperature  
Mean Temperature 70 °F 60 °F  
Max Temperature 78 °F 68 °F 86 °F (1936)
Min Temperature 62 °F 51 °F 32 °F (1947)
Degree Days  
Heating Degree Days 0 6  
Month to date heating degree days 21 81  
Since 1 July heating degree days 24 108  
Cooling Degree Days 5 1  
Month to date cooling degree days 51 48  
Year to date cooling degree days 596 535  
Growing Degree Days 18 (Base 50)    
Moisture  
Dew Point 62 °F    
Average Humidity 72    
Maximum Humidity 93    
Minimum Humidity 50    
Precipitation  
Precipitation 0.92 in 0.15 in 1.32 in (2000)
Month to date precipitation 5.44 2.92  
Year to date precipitation 33.81 28.08  
Snow  
Snow 0.00 in 0.00 in T in (1950)
Month to date snowfall 0.0 0.0  
Since 1 July snowfall 0.0 0.0  
Since 1 September snowfall 0.0 0.0  
Snow Depth 0.00 in    
Sea Level Pressure  
Sea Level Pressure 29.78 in    
Wind  
Wind Speed 13 mph (WSW)    
Max Wind Speed 28 mph    
Max Gust Speed 38 mph    
Visibility 8 miles    
Events Rain , Thunderstorm    
T = Trace of Precipitation, MM = Missing Value Source: NWS Daily Summary

Daily Weather History Graph

Daily Weather History Graph

Search for Another Location

Airport or City:

Astronomy

Sep. 23, 2019 Rise Set
Actual Time 7:03 AM EDT 7:10 PM EDT
Civil Twilight 6:34 AM EDT 7:39 PM EDT
Nautical Twilight 6:01 AM EDT 8:12 PM EDT
Astronomical Twilight 5:27 AM EDT 8:45 PM EDT
Moon 12:34 AM EDT (9/23) 4:11 PM EDT (9/23)
Length of Visible Light 13h 04m
Length of Day
12h 07m
Waning Crescent, 33% of the Moon is Illuminated
Sep 23
Waning Crescent
Sep 28
New
Oct 5
First Quarter
Oct 13
Full
Oct 21
Last Quarter

Hourly Weather History & Observations

Time (EDT) Temp. Dew Point Humidity Pressure Visibility Wind Dir Wind Speed Gust Speed Precip Events Conditions
12:54 AM 75.9 °F 59.0 °F 56% 29.83 in 10.0 mi SSW 16.1 mph - N/A   Mostly Cloudy
1:54 AM 77.0 °F 59.0 °F 54% 29.82 in 10.0 mi SSW 16.1 mph - N/A   Mostly Cloudy
2:54 AM 75.9 °F 59.0 °F 56% 29.81 in 10.0 mi SSW 15.0 mph - N/A   Mostly Cloudy
3:54 AM 77.0 °F 57.9 °F 52% 29.79 in 10.0 mi SW 15.0 mph 23.0 mph N/A   Mostly Cloudy
4:54 AM 77.0 °F 57.0 °F 50% 29.78 in 10.0 mi SW 15.0 mph 26.5 mph 0.00 in Rain Light Rain
5:54 AM 73.9 °F 61.0 °F 64% 29.77 in 10.0 mi SW 13.8 mph 29.9 mph 0.00 in Rain Light Rain
6:54 AM 73.0 °F 62.1 °F 68% 29.78 in 10.0 mi SW 23.0 mph 28.8 mph 0.00 in Rain Light Rain
7:54 AM 73.0 °F 62.1 °F 68% 29.77 in 10.0 mi SW 16.1 mph 32.2 mph 0.00 in   Mostly Cloudy
8:51 AM 73.4 °F 62.6 °F 69% 29.78 in 10.0 mi SW 19.6 mph 31.1 mph N/A   Mostly Cloudy
8:54 AM 73.0 °F 63.0 °F 71% 29.78 in 10.0 mi SW 21.9 mph 31.1 mph N/A   Mostly Cloudy
9:54 AM 73.0 °F 64.0 °F 73% 29.78 in 10.0 mi SW 18.4 mph 29.9 mph N/A   Overcast
10:54 AM 72.0 °F 64.9 °F 78% 29.78 in 10.0 mi WSW 17.3 mph 26.5 mph N/A   Overcast
11:54 AM 71.1 °F 66.0 °F 84% 29.77 in 10.0 mi SW 15.0 mph 23.0 mph 0.00 in Rain Light Rain
12:22 PM 72.0 °F 66.0 °F 81% 29.77 in 10.0 mi SW 13.8 mph 29.9 mph 0.00 in Rain Light Rain
12:54 PM 69.1 °F 66.0 °F 90% 29.77 in 3.0 mi SW 12.7 mph - 0.05 in Rain Rain
1:15 PM 69.1 °F 66.0 °F 90% 29.77 in 4.0 mi SW 16.1 mph 25.3 mph 0.04 in Rain Rain
1:54 PM 69.1 °F 66.0 °F 90% 29.75 in 10.0 mi SW 20.7 mph 24.2 mph 0.05 in   Overcast
2:52 PM 71.6 °F 66.2 °F 83% 29.76 in 10.0 mi SW 16.1 mph - 0.00 in Rain Light Rain
2:54 PM 72.0 °F 66.9 °F 84% 29.75 in 10.0 mi WSW 15.0 mph - 0.00 in Rain Light Rain
3:01 PM 72.0 °F 66.9 °F 84% 29.76 in 10.0 mi WSW 11.5 mph - 0.00 in   Mostly Cloudy
3:40 PM 70.0 °F 66.0 °F 87% 29.75 in 10.0 mi WNW 10.4 mph - 0.00 in   Mostly Cloudy
3:54 PM 70.0 °F 64.0 °F 81% 29.74 in 10.0 mi West 12.7 mph 17.3 mph 0.00 in   Mostly Cloudy
3:58 PM 69.1 °F 64.0 °F 84% 29.77 in 0.5 mi West 13.8 mph 17.3 mph 0.00 in Rain Heavy Rain
4:09 PM 66.9 °F 64.0 °F 90% 29.76 in 3.0 mi WNW 6.9 mph - 0.61 in Rain Light Rain
5:12 PM 68.0 °F 63.0 °F 84% 29.76 in 7.0 mi WSW 6.9 mph - 0.01 in Rain Light Rain
5:46 PM 69.1 °F 62.1 °F 78% 29.76 in 7.0 mi SSE 3.5 mph - 0.02 in Rain , Thunderstorm Light Thunderstorms and Rain
5:54 PM 69.1 °F 63.0 °F 81% 29.75 in 3.0 mi WSW 4.6 mph - 0.02 in Rain , Thunderstorm Heavy Thunderstorms and Rain
5:59 PM 68.0 °F 63.0 °F 84% 29.77 in 1.0 mi West 6.9 mph - 0.00 in Rain , Thunderstorm Heavy Thunderstorms and Rain
6:20 PM 66.0 °F 61.0 °F 84% 29.79 in 2.0 mi West 17.3 mph 21.9 mph 0.15 in Rain , Thunderstorm Light Thunderstorms and Rain
6:30 PM 64.0 °F 60.1 °F 87% 29.80 in 4.0 mi WNW 15.0 mph 24.2 mph 0.16 in Rain , Thunderstorm Light Thunderstorms and Rain
6:46 PM 64.0 °F 59.0 °F 84% 29.80 in 3.0 mi West 11.5 mph 20.7 mph 0.17 in Rain Rain
6:54 PM 64.0 °F 59.0 °F 84% 29.80 in 10.0 mi West 9.2 mph - 0.18 in Rain Light Rain
7:54 PM 63.0 °F 60.1 °F 90% 29.81 in 10.0 mi WSW 5.8 mph - 0.00 in   Mostly Cloudy
8:54 PM 63.0 °F 60.1 °F 90% 29.83 in 10.0 mi West 6.9 mph - N/A   Scattered Clouds
9:54 PM 62.1 °F 55.0 °F 78% 29.83 in 10.0 mi WSW 8.1 mph - N/A   Mostly Cloudy
11:54 PM 62.1 °F 54.0 °F 75% 29.82 in 10.0 mi West 10.4 mph - N/A   Mostly Cloudy